Starlink 2050

operational
NORAD ID: 47357 Int'l Des: 2021-005 Owner: SPXS Country: US Constellation: starlink
LEOCIRCULARSTARLINK_TYPE

About Starlink 2050

Description loading...

Live Position

Loading 3D Globe...

Upcoming Passes

Altitude History

Altitude vs Time

uPlot chart will show altitude changes over time

Two-Line Element Set

1 47357U 21005J 25304.24236374 .00000604 00000-0 59435-4 0 9999
2 47357 53.0543 283.1562 0001416 97.4461 262.6689 15.06410953263529
Epoch: Oct 31, 2025 • Age: 11 hours

Current Status

Altitude 548.4 km
Velocity 7.59 km/s
Sub-Earth Point 30.46°N, 9.84°E
Launch Date Jan 20, 2021
Age 4.7 years
Type internet

Technical Details

Classification Payload
Mass 260.00 kg
Dry Mass 248.00 kg
Total Mass 260.00 kg
Length 0.20 m
Diameter 2.80 m
Span 9.00 m
Shape Box + pan
Manufacturer SPXS
Bus Type Starlink
Phase Status In Orbit
Owner/State SPXS/US

Large Constellations

Loading constellations...